Renton, WA
on Friday, January 25, 2013

Friday
Previous Day Next Day
Daily Summary
 ActualAverage (KSEA)Record (KSEA)
Temperature
Mean Temperature °F 43°F  
Max Temperature 53°F 48°F 58°F (1986)
Min Temperature 41°F 37°F 7°F (1950)
Degree Days
Heating Degree Days 18 22  
Month to date heating degree days 578  
Since 1 July heating degree days 2516  
Cooling Degree Days 0 0  
Month to date cooling degree days 0  
Year to date cooling degree days 0  
Moisture
Dew Point 42°F   
Average Humidity 94    
Maximum Humidity 100    
Minimum Humidity 66    
Precipitation
Precipitation 0.16 in 0.17 in 0.93 in (1993)
Month to date precipitation 4.62  
Year to date precipitation 4.62  
Snow
Snow 0.00 in in 7.90 in (1972)
Month to date snowfall  
Since 1 July snowfall  
Snow Depth in   
Wind
Wind Speed 3 mph   
Max Wind Speed 7 mph   
Max Gust Speed mph   
Visibility 6 miles   
Events Rain   

Key: T is trace of precipitation, MM is missing value
Source: NWS Daily Summary
Time(PST)TemperatureDew PointHumidity Pressure Visibility Wind DirectionWind SpeedGust SpeedPrecipitationEvents Conditions
12:10 AM 42.8°F 41.0°F 93% 30.06 in 3.0 miles Calm Calm - 0.01 in Rain Light Rain
12:39 AM 42.8°F 41.0°F 93% 30.06 in 2.5 miles SSE 4.6 mph - 0.02 in   Overcast
12:53 AM 42.1°F 42.1°F 100% 30.08 in 1.8 miles SE 4.6 mph - 0.03 in Rain Light Rain
1:02 AM 42.8°F 42.8°F 100% 30.06 in 2.0 miles SE 3.5 mph - 0.01 in Rain Light Rain
1:26 AM 42.8°F 42.8°F 100% 30.05 in 1.8 miles SE 4.6 mph - 0.03 in Rain Light Rain
1:34 AM 42.8°F 42.8°F 100% 30.05 in 1.5 miles SE 3.5 mph - 0.04 in Rain Light Rain
1:43 AM 42.8°F 42.8°F 100% 30.05 in 2.5 miles SSE 3.5 mph - 0.05 in Rain Light Rain
1:53 AM 43.0°F 42.1°F 97% 30.07 in 2.5 miles SSE 4.6 mph - 0.06 in Rain Light Rain
2:08 AM 42.8°F 42.8°F 100% 30.05 in 4.0 miles SSE 4.6 mph - 0.01 in Rain Light Rain
2:30 AM 42.8°F 42.8°F 100% 30.06 in 2.5 miles SSE 4.6 mph - 0.03 in Rain Light Rain
2:41 AM 42.8°F 42.8°F 100% 30.06 in 2.5 miles SSE 3.5 mph - 0.03 in Rain Light Rain
2:53 AM 42.1°F 42.1°F 100% 30.07 in 2.0 miles SSE 4.6 mph - 0.04 in Rain Light Rain
3:07 AM 42.8°F 42.8°F 100% 30.05 in 1.8 miles SSE 4.6 mph - 0.01 in Rain Light Rain
3:32 AM 42.8°F 42.8°F 100% 30.05 in 2.0 miles SSE 4.6 mph - 0.02 in Rain Light Rain
3:39 AM 42.8°F 42.8°F 100% 30.05 in 1.8 miles SSE 3.5 mph - 0.03 in Rain Light Rain
3:49 AM 42.8°F 42.8°F 100% 30.05 in 3.0 miles SE 3.5 mph - 0.03 in Rain Light Rain
3:50 AM 42.1°F 42.1°F 100% 30.07 in 3.0 miles SE 3.5 mph - 0.03 in Rain Light Rain
4:11 AM 42.8°F 42.8°F 100% 30.05 in 5.0 miles South 4.6 mph - 0.00 in   Overcast
4:53 AM 43.0°F 42.1°F 97% 30.06 in 8.0 miles South 3.5 mph - 0.00 in   Overcast
5:53 AM 43.0°F 43.0°F 100% 30.07 in 8.0 miles Calm Calm - N/A   Overcast
6:53 AM 43.0°F 43.0°F 100% 30.06 in 7.0 miles Calm Calm - N/A   Overcast
7:53 AM 43.0°F 43.0°F 100% 30.07 in 5.0 miles SE 3.5 mph - N/A   Overcast
8:53 AM 44.1°F 44.1°F 100% 30.06 in 4.0 miles Calm Calm - N/A   Overcast
9:29 AM 44.6°F 44.6°F 100% 30.06 in 10.0 miles Calm Calm - N/A   Overcast
9:53 AM 46.0°F 45.0°F 96% 30.07 in 6.0 miles Calm Calm - N/A   Overcast
10:53 AM 48.9°F 45.0°F 86% 30.07 in 10.0 miles Calm Calm - N/A   Overcast
11:53 AM 50.0°F 45.0°F 83% 30.05 in 10.0 miles NNW 3.5 mph - N/A   Overcast
12:53 PM 51.1°F 44.1°F 77% 30.02 in 10.0 miles SE 5.8 mph - N/A   Overcast
1:53 PM 53.1°F 42.1°F 66% 30.00 in 10.0 miles South 6.9 mph - N/A   Mostly Cloudy
2:53 PM 51.1°F 42.1°F 71% 29.99 in 10.0 miles South 6.9 mph - N/A   Scattered Clouds
3:53 PM 51.1°F 41.0°F 68% 29.98 in 10.0 miles South 4.6 mph - N/A   Partly Cloudy
4:53 PM 48.0°F 41.0°F 77% 29.98 in 10.0 miles Calm Calm - N/A   Clear
5:40 PM 44.6°F 42.8°F 93% 29.96 in 10.0 miles Calm Calm - N/A   Mostly Cloudy
5:53 PM 45.0°F 41.0°F 86% 29.98 in 10.0 miles Calm Calm - N/A   Overcast
6:51 PM 44.6°F 42.8°F 93% 29.95 in 10.0 miles SE 3.5 mph - N/A   Mostly Cloudy
6:53 PM 45.0°F 43.0°F 93% 29.97 in 10.0 miles SE 3.5 mph - N/A   Mostly Cloudy
7:53 PM 44.1°F 42.1°F 93% 29.97 in 10.0 miles SSE 4.6 mph - N/A   Mostly Cloudy
8:53 PM 44.1°F 42.1°F 93% 29.96 in 10.0 miles Calm Calm - 0.00 in   Mostly Cloudy
9:29 PM 42.8°F 41.0°F 93% 29.94 in 10.0 miles Calm Calm - N/A   Mostly Cloudy
9:39 PM 42.8°F 41.0°F 93% 29.94 in 10.0 miles Calm Calm - N/A   Scattered Clouds
9:53 PM 42.1°F 41.0°F 96% 29.96 in 10.0 miles Calm Calm - N/A   Clear
10:21 PM 41.0°F 39.2°F 93% 29.94 in 9.0 miles Calm Calm - N/A   Mostly Cloudy
10:53 PM 41.0°F 41.0°F 100% 29.96 in 8.0 miles Calm Calm - N/A   Overcast
11:53 PM 42.1°F 41.0°F 96% 29.96 in 9.0 miles Calm Calm - N/A   Overcast
Moon Phase
Jan. 25 Jan. 26 Feb. 03 Feb. 10 Feb. 17
Sunrise:07:42 AM (PST) Moon Rise:04:02 PM (PST)1/25
Sunset:05:00 PM (PST) Moon Set:06:26 AM (PST)1/25

Copyright © 2014 The Weather Underground, Inc.